Regional Weather Roundup
Issued by NWS

Home | Current Version | Previous Version | Graphics & Text | Print | Product List | Glossary On
Versions: 1 2 3 4 5 6 7 8 9 10 11 12 13 14 15 16 17 18 19 20 21 22 23 24 25 26 27 28 29 30 31 32 33 34 35 36 37 38 39 40 41 42 43 44 45 46 47 48 49
000
ASUS45 KBOU 151207
RWRCO

WEATHER ROUNDUP FOR COLORADO
NATIONAL WEATHER SERVICE DENVER/BOULDER CO
600 AM MDT MON SEP 15 2014

NOTE: "FAIR" INDICATES FEW OR NO CLOUDS BELOW 12000 FEET WITH NO
SIGNIFICANT WEATHER AND/OR OBSTRUCTIONS TO VISIBILITY.

COZ001>005-013-030-031-151300-
...NORTHWEST COLORADO...

CITY           SKY/WX    TMP DP  RH WIND       PRES   REMARKS
CRAIG          CLEAR     39  35  86 CALM      30.29R
HAYDEN         CLEAR     46  36  66 E12       30.30R
MEEKER         CLEAR     43  38  82 NE5       30.30R
MOUNT WERNER   NOT AVBL
STEAMBOAT SPGS CLEAR     42  36  80 CALM      30.34R
WALDEN         PTCLDY    34  30  86 E6        30.39R WCI  29
$$

COZ006>008-011-151300-
...WEST CENTRAL VALLEYS...

CITY           SKY/WX    TMP DP  RH WIND       PRES   REMARKS
GRAND JUNCTION PTCLDY    59  40  49 S5        30.17R
MONTROSE       CLEAR     54  41  61 S10       30.25R
EAGLE          CLEAR     43  37  81 SE3       30.37R
RIFLE          CLEAR     47  40  76 CALM      30.25R
DELTA          CLEAR     55  40  55 NE6       30.22S
NUCLA          NOT AVBL
$$

COZ017>023-064>068-151300-
...SOUTHWEST COLORADO...

CITY           SKY/WX    TMP DP  RH WIND       PRES   REMARKS
DURANGO        CLEAR     51  42  71 N3        30.31R
CORTEZ         CLEAR     47  41  80 E3        30.25R
PAGOSA SPRINGS NOT AVBL
TELLURIDE      PTCLDY    48  37  66 SE6       30.45S
WOLF CREEK PAS CLEAR     41  37  87 W7        30.63S
$$

COZ009-010-012-014-032>034-037-058>063-151300-
...CENTRAL COLORADO...

CITY           SKY/WX    TMP DP  RH WIND       PRES   REMARKS
ASPEN          CLEAR     45  34  65 SW8       30.37S
BUENA VISTA    CLEAR     44  32  64 NW8       30.42R
COPPER MTN     CLEAR     45  28  53 W8        30.64R
BERTHOUD PASS  FAIR      37  36  93 W12       30.67R
COTTONWOOD PAS CLEAR     54  27  35 W9        30.51R
GUNNISON       CLEAR     39  32  75 CALM      30.43S
KREMMLING      CLEAR     36  32  87 CALM      30.41R
LEADVILLE      CLEAR     36  28  73 N3        30.51R
SALIDA         CLEAR     50  34  53 NW8       30.46R
SUNLIGHT       CLEAR     54  32  43 CALM      30.57S
WILKERSON PASS NOT AVBL
$$

COZ069>075-151300-
...SAN LUIS VALLEY/SANGRE DE CRISTO MOUNTAINS...

CITY           SKY/WX    TMP DP  RH WIND       PRES   REMARKS
ALAMOSA        PTCLDY    44  40  85 E6        30.36R
LA VETA PASS   NOT AVBL
SAGUACHE       NOT AVBL
$$

COZ035-036-038>040-151300-
...NORTHERN COLORADO FRONT RANGE...

CITY           SKY/WX    TMP DP  RH WIND       PRES   REMARKS
DENVER INTL AP PTCLDY    48  45  89 N6        30.33R
DMNS CITY PARK   N/A     51  44  76 N2        30.33R
AURORA         MOCLDY    49  47  92 NW7       30.34R
FRONT RANGE AP CLOUDY    52  48  87 N6        30.33R
ERIE MUNI ARPT CLEAR     48  45  88 CALM      30.32R
BOULDER MUN AP CLEAR     50  46  87 E5        30.32R
CENTENNIAL     PTCLDY    51  45  79 NW5       30.33R
BROOMFIELD     CLEAR     50  45  81 E6        30.34R
FORT COLLINS   CLEAR     46  43  87 S9        30.33R
LONGMONT       CLEAR     50  47  89 CALM      30.34R
$$

COZ041-046-047-076>085-087-088-151300-
...PIKES PEAK/PALMER DIVIDE AND SOUTHERN FOOTHILLS...

CITY           SKY/WX    TMP DP  RH WIND       PRES   REMARKS
COLO. SPRINGS  CLEAR     54  45  71 NW15G22   30.27R
A. F. ACADEMY  CLEAR     50  46  85 N15       30.31R
ELLICOTT       NOT AVBL
FALCON         CLEAR     49  47  91 N17G28    30.30S
FORT CARSON    CLEAR     54  47  75 NW24G32   30.23R
LIMON          CLOUDY    50  50 100 NW18      30.27R FOG
MONUMENT HILL  CLOUDY    46  45  93 NW12      30.35R FOG
TRINIDAD       PTCLDY    58  48  69 W12       30.20S
$$

COZ042>045-048>051-090-091-151300-
...NORTHEAST COLORADO...

CITY           SKY/WX    TMP DP  RH WIND       PRES   REMARKS
GREELEY ARPT   MOCLDY    46  39  76 SE6       30.33R
AKRON          CLOUDY    46  46 100 N15       30.28R FOG
BURLINGTON     CLOUDY    54  53  97 N15G23    30.20R FOG
WRAY           CLOUDY    55  55 100 N10       30.23R
STERLING       CLOUDY    52  48  87 NE5       30.27R
HOLYOKE        CLOUDY    54  50  87 N13       30.24R
FORT MORGAN    CLOUDY    47  45  91 N8        30.30R
$$

COZ086-089-092>099-151300-
...SOUTHEAST COLORADO...

CITY           SKY/WX    TMP DP  RH WIND       PRES   REMARKS
PUEBLO         CLEAR     57  38  48 S3        30.18R
LA JUNTA       CLEAR     57  50  77 N16       30.15R
LAMAR          CLEAR     56  52  86 N7        30.11R
SPRINGFIELD      N/A     53  51  93 CALM      30.10R
$$


USA.gov is the U.S. government's official web portal to all federal, state and local government web resources and services.